Location: Allos
(44.2333°N, 6.6333°E)
Time: 18:12:59
(UTC+00:00)

Cosmos 2228 Rocket - Pass Details

Date: 30 April 2021
Orbit: 617 x 652 km, 82.5° (Epoch: 05 May)

Event Time Altitude Azimuth Distance (km) Brightness Sun altitude
Exits shadow 22:36:56 32° 30° (NNE) 1,073 4.6 -29.4°
Drops below altitude 10° 22:39:26 10° 16° (NNE) 1,998 6.4 -29.6°
Sets 22:41:42 0° 13° (NNE) 2,913 7.4 -29.7°
